Location: Asheville, NC
(35.6000°N, 82.5500°W)
Time: 18:27:34
(UTC-05:00)

Envisat - Pass Details

Date: 09 October 2017
Orbit: 764 x 766 km, 98.2° (Epoch: 12 December)

Event Time Altitude Azimuth Distance (km) Brightness Sun altitude
Exits shadow 20:04:29 14° 59° (ENE) 2,022 4.7 -13.4°
Drops below altitude 10° 20:06:44 10° 33° (NNE) 2,306 5.2 -13.9°
Sets 20:10:05 0° 9° (N) 3,237 6.2 -14.6°
